Total_Precipitation_Accumulation
2.12 2.17 2.09 2.07 2.11 2.12 1.99 1.90 1.96 2.01 2.05 2.04 1.89 1.86 1.81 1.76 1.80 1.95 2.00 2.00 1.99 1.98 1.89 1.90 1.96 2.01 2.15 2.03 2.03 2.09 2.25 2.42 2.45 1.97 1.75 1.77 1.89 1.93 1.87 1.78 1.66 1.51 1.41
2.01 2.01 1.87 1.78 1.79 1.82 1.79 1.70 1.69 1.75 1.75 1.74 1.70 1.59 1.49 1.54 1.70 1.74 1.71 1.73 1.81 1.79 1.74 1.74 1.72 1.81 1.95 1.96 2.00 1.95 2.05 2.23 2.30 2.17 1.93 1.79 1.82 1.85 1.86 1.82 1.57 1.39 1.35
1.97 1.96 1.90 1.75 1.65 1.62 1.61 1.54 1.46 1.51 1.54 1.49 1.51 1.52 1.49 1.44 1.51 1.54 1.53 1.55 1.61 1.68 1.69 1.64 1.58 1.71 1.79 1.79 1.81 1.82 1.85 1.88 2.04 1.98 1.74 1.70 1.66 1.69 1.86 1.82 1.72 1.69 1.34
1.79 1.83 1.81 1.74 1.65 1.55 1.51 1.52 1.48 1.45 1.39 1.30 1.34 1.40 1.41 1.37 1.34 1.36 1.40 1.52 1.64 1.59 1.50 1.50 1.52 1.52 1.55 1.67 1.64 1.74 1.85 1.99 2.02 1.93 1.73 1.61 1.66 1.69 1.96 2.02 1.94 1.76 1.52
1.62 1.62 1.59 1.56 1.54 1.46 1.42 1.44 1.45 1.45 1.35 1.34 1.32 1.31 1.30 1.29 1.20 1.24 1.29 1.35 1.55 1.59 1.49 1.41 1.37 1.40 1.39 1.45 1.38 1.52 1.73 1.90 1.95 1.97 1.85 1.72 1.74 1.94 1.93 1.82 1.82 1.71 1.52
1.58 1.49 1.44 1.45 1.40 1.32 1.27 1.25 1.25 1.26 1.32 1.36 1.35 1.30 1.19 1.06 1.18 1.24 1.20 1.28 1.40 1.46 1.46 1.39 1.30 1.25 1.19 1.20 1.15 1.22 1.44 1.67 1.85 2.00 1.91 1.81 1.77 1.89 1.98 1.89 1.95 2.02 1.83
1.60 1.48 1.38 1.41 1.40 1.31 1.22 1.25 1.23 1.22 1.29 1.34 1.37 1.38 1.26 1.17 1.22 1.17 1.19 1.22 1.34 1.44 1.48 1.48 1.26 1.08 1.21 1.16 1.19 1.19 1.21 1.31 1.59 1.92 2.04 1.89 1.84 1.96 2.16 2.11 2.13 2.15 2.01
1.62 1.54 1.41 1.39 1.39 1.35 1.34 1.37 1.39 1.34 1.34 1.42 1.46 1.41 1.33 1.22 1.20 1.15 1.16 1.17 1.22 1.30 1.35 1.39 1.49 1.45 1.33 1.28 1.22 1.23 1.26 1.29 1.38 1.47 1.71 1.79 1.69 1.78 2.00 2.05 2.10 2.03 1.88
1.56 1.52 1.42 1.34 1.36 1.35 1.37 1.42 1.43 1.42 1.41 1.42 1.41 1.43 1.40 1.32 1.22 1.16 1.20 1.14 1.11 1.11 1.13 1.20 1.31 1.35 1.33 1.25 1.24 1.32 1.38 1.38 1.24 1.33 1.38 1.53 1.65 1.64 1.65 1.81 2.08 2.22 2.09
1.34 1.29 1.24 1.25 1.26 1.25 1.30 1.34 1.45 1.49 1.47 1.42 1.40 1.42 1.40 1.36 1.17 1.03 1.10 1.05 1.08 1.09 1.17 1.20 1.19 1.11 1.20 1.19 1.18 1.39 1.47 1.42 1.49 1.64 1.75 1.82 1.77 1.71 1.59 1.68 2.04 2.28 2.22
1.17 1.20 1.22 1.25 1.29 1.29 1.34 1.34 1.39 1.39 1.46 1.50 1.49 1.43 1.36 1.22 1.05 0.93 0.94 0.91 1.02 1.09 1.19 1.24 1.13 1.03 1.02 1.04 1.11 1.25 1.39 1.51 1.82 2.10 2.12 1.98 1.88 1.80 1.72 1.66 1.82 2.08 2.23
1.15 1.21 1.25 1.27 1.13 1.11 1.36 1.36 1.32 1.40 1.43 1.41 1.39 1.33 1.23 1.13 0.96 0.84 0.83 0.83 0.93 1.06 1.24 1.20 1.09 1.03 0.90 0.91 0.98 1.15 1.32 1.60 1.97 2.25 2.11 1.82 1.65 1.58 1.55 1.56 1.65 1.79 1.96
1.28 1.29 1.25 1.25 1.27 1.31 1.34 1.29 1.27 1.31 1.25 1.10 1.04 1.04 1.02 1.03 0.99 0.88 0.80 0.79 0.85 0.93 1.12 1.18 1.14 1.07 0.98 1.07 1.16 1.31 1.46 1.67 1.96 2.03 1.87 1.70 1.61 1.58 1.53 1.56 1.58 1.64 1.61
1.33 1.26 1.22 1.28 1.40 1.40 1.35 1.20 1.16 1.13 1.10 1.05 1.01 0.99 0.97 0.96 0.87 0.77 0.73 0.77 0.83 0.85 0.97 1.13 1.22 1.24 1.25 1.35 1.46 1.55 1.62 1.69 1.75 1.72 1.65 1.63 1.58 1.58 1.55 1.55 1.62 1.61 1.66
1.41 1.32 1.23 1.15 1.22 1.29 1.15 0.99 0.98 0.96 1.01 1.10 1.12 1.09 1.03 0.92 0.81 0.81 0.74 0.72 0.81 0.89 0.96 1.13 1.32 1.40 1.46 1.53 1.57 1.63 1.67 1.62 1.56 1.53 1.57 1.59 1.57 1.56 1.57 1.61 1.71 1.65 1.61
1.36 1.24 1.12 0.99 0.97 0.96 0.94 0.93 0.94 0.92 0.94 1.00 1.09 1.07 0.96 0.90 0.86 0.82 0.82 0.84 0.89 1.00 1.03 1.23 1.44 1.51 1.54 1.57 1.59 1.64 1.65 1.54 1.45 1.46 1.51 1.52 1.54 1.55 1.59 1.68 1.77 1.76 1.71
1.37 1.25 1.05 0.92 0.87 0.83 0.85 0.94 0.99 0.92 0.90 0.92 0.99 1.00 1.03 0.96 0.86 0.83 0.86 0.94 0.97 1.00 1.04 1.25 1.47 1.64 1.70 1.60 1.53 1.54 1.60 1.60 1.55 1.53 1.53 1.56 1.51 1.51 1.59 1.66 1.70 1.65 1.62
1.19 1.12 1.02 0.93 0.88 0.84 0.80 0.86 1.00 1.09 1.05 1.01 0.99 0.99 1.00 0.97 0.93 0.93 0.95 0.97 1.03 1.07 1.14 1.30 1.44 1.53 1.59 1.59 1.51 1.49 1.52 1.56 1.61 1.58 1.56 1.62 1.63 1.60 1.59 1.63 1.63 1.54 1.50
1.04 0.98 0.93 0.87 0.84 0.83 0.82 0.89 0.97 1.01 1.11 1.17 1.12 1.06 1.09 1.06 1.08 1.09 1.02 0.97 1.05 1.14 1.27 1.37 1.41 1.43 1.41 1.43 1.40 1.37 1.38 1.43 1.44 1.46 1.47 1.52 1.58 1.61 1.59 1.57 1.58 1.52 1.53
0.91 0.91 0.84 0.74 0.70 0.74 0.77 0.87 1.03 1.14 1.22 1.30 1.29 1.19 1.17 1.18 1.24 1.27 1.16 1.11 1.15 1.21 1.29 1.36 1.37 1.31 1.29 1.30 1.26 1.26 1.28 1.29 1.26 1.26 1.28 1.31 1.39 1.46 1.45 1.39 1.39 1.44 1.53
0.77 0.83 0.84 0.74 0.70 0.74 0.81 0.92 1.07 1.20 1.23 1.30 1.32 1.30 1.32 1.30 1.44 1.50 1.42 1.34 1.28 1.27 1.31 1.29 1.33 1.32 1.26 1.27 1.25 1.21 1.20 1.19 1.16 1.16 1.19 1.26 1.32 1.34 1.29 1.28 1.29 1.30 1.38
0.73 0.78 0.77 0.78 0.80 0.82 0.90 1.00 1.11 1.15 1.13 1.14 1.10 1.11 1.23 1.23 1.38 1.47 1.52 1.50 1.39 1.32 1.30 1.27 1.27 1.31 1.36 1.34 1.25 1.22 1.19 1.15 1.12 1.12 1.16 1.19 1.22 1.19 1.18 1.21 1.25 1.30 1.31
0.67 0.72 0.72 0.74 0.79 0.83 0.86 0.92 0.99 1.01 1.01 0.99 0.96 0.95 1.02 1.12 1.23 1.33 1.44 1.49 1.45 1.38 1.32 1.27 1.25 1.24 1.23 1.26 1.22 1.13 1.07 1.06 1.03 1.05 1.13 1.15 1.14 1.10 1.10 1.17 1.21 1.26 1.28
0.61 0.69 0.68 0.65 0.71 0.75 0.77 0.79 0.79 0.83 0.82 0.83 0.85 0.85 0.90 1.00 1.11 1.20 1.27 1.33 1.36 1.34 1.30 1.28 1.25 1.18 1.11 1.09 1.04 0.93 0.87 0.88 0.87 0.90 1.02 1.11 1.10 1.06 1.09 1.17 1.17 1.16 1.16
0.54 0.60 0.61 0.58 0.60 0.64 0.69 0.68 0.64 0.65 0.69 0.72 0.75 0.77 0.80 0.87 0.93 0.96 1.00 1.09 1.20 1.26 1.19 1.15 1.18 1.12 1.02 0.95 0.90 0.80 0.83 0.83 0.81 0.81 0.88 1.00 1.00 1.04 1.07 1.11 1.12 1.12 1.13
0.50 0.52 0.56 0.59 0.60 0.63 0.65 0.65 0.62 0.63 0.65 0.67 0.69 0.68 0.71 0.75 0.80 0.82 0.85 0.90 0.98 1.11 1.13 1.06 1.01 0.99 0.92 0.84 0.84 0.87 0.84 0.75 0.73 0.78 0.80 0.87 0.94 0.99 1.05 1.09 1.05 1.08 1.14